GEFSNE_con_prob3kmehi_252.txt.gz
EHI
25 24 24 21 19 20 19 16 13 11 9 10 11 14 15 11 6 5 5 2 0 0 0 0 0 0 0 0 0 0 0 0 0 0 0 0 0 0
27 26 26 25 22 19 18 17 16 14 12 11 11 11 10 9 7 9 8 4 0 0 0 0 0 0 0 0 0 0 0 0 0 0 0 0 0 0
27 27 26 25 23 20 17 17 18 17 15 12 10 9 9 8 7 9 10 6 2 0 0 0 0 0 0 0 0 0 0 0 0 0 0 0 0 0
25 24 22 21 21 20 19 18 18 17 15 12 11 11 11 9 6 6 7 5 3 1 0 0 0 0 0 0 0 0 0 0 0 0 0 0 0 0
24 23 21 21 21 21 20 19 17 15 14 12 11 11 10 8 6 4 4 3 2 2 1 0 0 0 0 0 0 0 0 0 0 0 0 0 0 0
26 25 22 21 20 20 19 19 17 14 12 10 10 9 7 6 4 3 2 2 2 2 1 0 0 0 0 0 0 0 0 0 0 0 0 0 0 0
25 24 21 19 17 16 15 15 16 15 12 9 8 8 7 5 3 1 1 1 2 3 2 1 1 1 0 0 0 0 0 0 0 0 0 0 0 0
23 21 19 16 13 11 10 9 10 11 10 7 6 7 8 7 4 1 0 1 2 3 3 3 2 2 1 1 0 0 0 0 0 0 0 0 0 0
21 19 17 14 12 11 9 8 7 7 6 4 3 4 6 8 5 1 0 1 1 2 3 3 3 3 3 2 1 0 0 0 0 0 0 0 0 0
21 19 18 15 12 11 12 12 10 8 5 2 1 2 3 5 3 1 0 0 0 1 2 2 3 3 4 4 2 1 0 0 0 0 0 0 0 0
21 20 18 14 10 9 11 14 13 11 7 3 0 0 1 2 2 0 0 0 0 0 1 1 1 2 3 4 3 1 0 0 0 0 0 0 0 0
21 17 13 10 6 5 9 12 10 8 6 3 1 0 0 1 1 0 0 0 0 0 0 0 1 2 3 3 3 2 1 0 0 0 0 0 0 0
19 14 8 5 2 2 5 8 6 4 4 4 3 1 0 0 0 0 0 0 0 0 0 1 2 3 3 3 3 3 1 0 0 0 0 0 0 0
15 10 4 1 0 0 2 3 3 3 4 5 3 1 0 0 1 2 2 1 0 0 0 1 2 2 2 2 3 3 2 1 0 0 0 0 0 0
8 4 1 0 0 1 1 1 2 4 6 5 3 1 0 1 3 5 5 3 1 1 0 1 1 1 1 1 1 3 3 2 1 0 0 0 0 0
4 4 3 2 3 4 4 3 3 5 6 5 4 2 1 1 3 5 6 5 3 2 1 1 1 1 1 1 1 3 4 4 4 2 0 0 0 0
8 9 8 7 8 10 10 8 6 5 5 6 5 4 3 3 3 4 5 4 3 3 3 2 2 2 2 3 3 4 5 6 6 4 2 0 0 0
11 11 11 11 12 13 12 9 7 6 6 6 6 5 4 3 3 3 4 3 3 3 3 3 3 3 3 4 4 5 6 6 6 5 3 1 0 0
10 11 11 12 13 13 12 10 8 7 7 6 6 6 4 3 3 3 3 3 3 3 3 3 3 3 3 3 4 4 5 6 6 5 4 2 1 0
8 8 9 10 12 12 10 11 11 9 8 7 6 5 4 3 3 3 3 3 3 3 3 3 3 3 3 3 3 3 4 4 4 5 4 3 2 1
6 6 6 8 9 9 9 10 11 10 9 8 7 5 4 3 3 3 3 3 3 3 3 3 3 3 3 3 3 3 3 2 2 3 3 2 1 0
6 6 6 6 7 7 8 8 8 8 9 9 8 6 5 4 3 3 3 3 3 3 3 3 3 3 3 3 3 3 3 2 2 1 1 1 0 0
6 6 6 6 6 7 8 7 5 6 8 9 8 7 6 5 4 3 3 3 3 3 3 3 3 3 3 3 3 3 3 2 2 2 1 0 0 0

GEFSNE_con_prob3kmehi_258.txt.gz
EHI
2 2 1 0 0 1 2 3 4 3 1 0 0 1 1 0 0 0 0 0 0 0 0 0 0 0 0 0 0 0 0 0 0 0 0 0 0 0
3 2 1 0 0 0 2 4 4 3 2 1 0 1 1 0 0 0 0 0 0 0 0 0 0 0 0 0 0 0 0 0 0 0 0 0 0 0
4 4 3 1 0 0 2 4 6 5 3 1 0 1 1 0 0 0 0 0 0 0 0 0 0 0 0 0 0 0 0 0 0 0 0 0 0 0
6 6 5 3 1 1 3 5 7 7 5 2 0 0 0 0 0 0 0 0 0 0 0 0 0 0 0 0 0 0 0 0 0 0 0 0 0 0
8 8 8 7 6 5 6 7 8 8 7 4 1 1 0 0 0 0 0 0 0 0 0 0 0 0 0 0 0 0 0 0 0 0 0 0 0 0
12 12 12 11 10 10 9 10 9 7 5 4 2 1 0 0 0 0 0 0 0 0 0 0 0 0 0 0 0 0 0 0 0 0 0 0 0 0
13 14 14 12 10 10 10 10 9 6 3 2 2 1 1 0 0 0 0 0 0 0 0 0 0 0 0 0 0 0 0 0 0 0 0 0 0 0
10 11 11 10 8 7 6 5 5 4 2 2 2 2 2 1 0 0 0 0 0 0 0 0 0 0 0 0 0 0 0 0 0 0 0 0 0 0
6 8 9 8 7 5 3 1 1 1 1 1 2 2 2 1 0 0 0 0 0 0 0 0 0 0 0 0 0 0 0 0 0 0 0 0 0 0
5 6 8 7 6 4 2 0 0 0 1 1 1 1 1 1 0 0 0 0 0 0 0 0 0 0 0 0 0 0 0 0 0 0 0 0 0 0
4 5 6 5 3 2 1 0 0 0 0 0 0 0 0 0 0 0 0 0 0 0 0 0 0 0 0 0 0 0 0 0 0 0 0 0 0 0
2 4 4 2 1 0 0 0 0 0 0 0 0 0 0 0 0 0 0 0 0 0 0 0 0 0 0 0 0 0 0 0 0 0 0 0 0 0
2 4 4 2 1 0 0 0 0 0 0 0 0 0 0 0 0 0 0 0 0 0 0 0 0 0 0 0 0 0 0 0 0 0 0 0 0 0
4 5 5 3 1 0 0 0 0 0 0 1 1 1 1 0 0 0 0 0 0 0 0 0 0 0 0 0 0 0 0 0 0 0 0 0 0 0
3 4 4 2 0 0 0 0 0 0 1 2 2 2 2 1 0 0 0 0 0 0 0 0 0 0 0 0 0 0 0 0 0 0 0 0 0 0
1 1 1 0 0 0 0 0 0 0 1 2 3 3 2 1 0 0 0 0 0 0 0 0 0 0 0 0 0 0 0 0 0 0 0 0 0 0
0 1 1 1 1 1 1 1 0 0 0 2 3 3 2 1 0 0 1 1 0 0 0 0 0 0 0 0 0 0 0 1 1 1 0 0 0 0
1 2 2 2 2 2 2 2 1 1 1 2 3 3 3 2 1 1 1 1 0 0 0 1 1 1 1 1 1 0 1 2 2 2 1 1 1 1
2 3 3 3 4 4 4 4 3 3 3 4 3 4 4 4 3 1 1 1 0 0 0 1 2 2 2 2 2 1 2 2 3 3 2 2 2 2
2 3 3 4 5 6 6 6 5 5 5 4 4 3 4 5 4 2 1 0 0 0 0 1 1 1 2 2 2 2 1 1 2 2 1 1 2 1
2 3 3 4 5 6 6 6 5 4 4 4 3 3 3 4 4 3 1 0 0 0 0 0 0 0 1 1 1 1 0 0 1 1 0 0 0 0
2 2 3 4 5 5 6 5 4 3 3 3 3 3 3 3 3 3 2 1 0 1 0 0 0 0 0 0 0 0 0 0 0 0 0 0 0 0
1 2 3 5 5 5 4 4 4 3 3 3 3 3 3 3 3 3 2 1 0 1 0 0 0 0 0 0 0 0 0 0 0 0 0 0 0 0

GEFSNE_con_prob3kmehi_264.txt.gz
EHI
0 1 1 1 0 2 5 6 5 3 1 1 2 3 4 2 1 0 0 0 0 0 0 0 0 0 0 0 0 0 0 0 0 0 0 0 0 0
0 1 1 0 1 3 5 6 6 5 3 2 2 3 3 1 0 0 0 0 0 0 0 0 0 0 0 0 0 0 0 0 0 0 0 0 0 0
1 1 1 0 1 3 6 7 7 8 7 4 3 3 2 1 0 0 0 0 0 0 0 0 0 0 0 0 0 0 0 0 0 0 0 0 0 0
2 2 1 1 2 5 7 8 9 10 10 8 4 3 2 1 0 0 0 0 0 0 0 0 0 0 0 0 0 0 0 0 0 0 0 0 0 0
3 4 3 2 3 6 8 9 10 11 11 9 5 3 2 1 0 0 0 0 0 0 0 0 0 0 0 0 0 0 0 0 0 0 0 0 0 0
3 3 4 4 5 6 8 9 9 9 9 8 6 4 2 1 0 0 0 0 0 0 0 0 0 0 0 0 0 0 0 0 0 0 0 0 0 0
2 2 3 3 3 4 5 6 6 6 6 6 6 4 2 1 0 0 0 0 0 0 0 0 0 0 0 0 0 0 0 0 0 0 0 0 0 0
2 2 2 2 1 1 1 2 2 3 3 4 4 4 3 1 0 0 0 0 0 0 0 0 0 0 0 0 0 0 0 0 0 0 0 0 0 0
4 3 2 2 1 0 0 0 0 1 2 3 3 3 2 1 0 0 0 0 0 0 0 0 0 0 0 0 0 0 0 0 0 0 0 0 0 0
5 4 3 2 1 0 0 0 0 0 0 1 2 2 2 1 0 0 0 0 0 0 0 0 0 0 0 0 0 0 0 0 0 0 0 0 0 0
4 3 2 1 0 0 0 0 0 0 0 0 0 1 1 0 0 0 0 0 0 0 0 0 0 0 0 0 0 0 0 0 0 0 0 0 0 0
2 1 0 0 0 0 0 0 0 0 0 0 0 0 0 0 0 0 0 0 0 0 0 0 0 0 0 0 0 0 0 0 0 0 0 0 0 0
3 2 1 0 0 0 0 0 0 0 0 0 0 0 0 0 0 0 0 0 0 0 0 0 0 0 0 0 0 0 0 0 0 0 0 0 0 0
6 3 1 0 0 0 0 0 0 0 0 0 1 1 1 1 1 0 0 0 0 0 0 0 0 0 0 0 0 0 0 0 0 0 0 0 0 0
4 3 1 0 0 0 0 0 0 0 0 1 2 2 2 2 2 1 1 0 0 0 0 0 0 0 0 0 0 0 0 0 0 0 0 0 0 0
3 2 1 1 0 0 0 0 0 0 0 1 2 3 3 3 3 3 2 1 0 0 0 0 0 0 0 0 0 0 0 0 0 0 0 0 0 0
4 3 3 3 2 2 2 1 0 0 0 1 2 3 3 3 3 3 4 3 2 0 0 0 0 0 0 0 0 0 0 0 0 1 1 1 0 0
4 5 5 5 4 4 3 2 1 0 0 1 2 3 3 3 3 4 5 5 4 2 1 1 1 1 1 1 0 0 0 0 1 2 2 2 1 0
4 4 4 4 3 3 3 3 2 1 1 1 2 3 3 3 4 5 6 6 6 5 3 2 2 2 2 1 0 0 0 0 1 2 2 2 1 0
3 3 3 2 1 1 1 2 2 2 1 1 1 2 3 4 5 6 6 6 6 5 4 3 2 2 1 1 0 0 0 0 0 1 1 1 0 0
3 3 3 2 0 0 1 1 1 1 1 0 1 2 3 4 6 6 6 6 5 4 3 1 1 1 0 0 0 0 0 0 0 0 0 0 0 0
3 3 3 2 1 1 2 2 2 1 1 2 3 4 5 6 6 6 6 5 4 3 2 1 0 0 0 0 0 0 0 0 0 0 0 0 0 0
3 3 3 3 2 2 3 3 3 2 3 4 5 6 6 6 6 5 4 4 4 3 1 0 0 0 0 0 0 0 0 0 0 0 0 0 0 0

GEFSNE_con_prob3kmehi_270.txt.gz
EHI
6 7 6 4 3 4 4 3 4 3 2 3 5 5 5 5 4 4 6 4 1 0 0 0 0 0 0 0 0 0 0 0 0 0 0 0 0 0
8 6 5 5 5 5 4 5 7 8 6 4 5 8 9 8 5 5 7 5 2 1 0 0 0 0 0 0 0 0 0 0 0 0 0 0 0 0
6 5 4 5 6 7 6 8 12 14 12 8 6 10 14 13 9 7 6 4 3 2 0 0 0 0 0 0 0 0 0 0 0 0 0 0 0 0
4 4 4 6 9 11 12 13 15 15 15 12 10 12 16 15 13 8 4 2 2 1 0 0 0 0 0 0 0 0 0 0 0 0 0 0 0 0
6 5 5 7 11 14 17 19 17 15 15 15 14 15 16 15 12 8 4 2 1 0 0 0 0 0 0 0 0 0 0 0 0 0 0 0 0 0
9 9 8 8 11 14 18 19 18 15 15 15 16 17 17 15 12 8 6 5 3 1 1 0 0 0 0 0 0 0 0 0 0 0 0 0 0 0
12 13 11 10 9 10 11 13 14 14 15 16 16 17 17 16 13 11 9 7 5 3 2 1 0 0 0 0 0 0 0 0 0 0 0 0 0 0
16 15 13 11 9 7 5 5 8 10 11 14 17 17 17 17 16 12 10 8 6 5 3 1 1 0 0 0 1 0 0 0 0 0 0 0 0 0
17 16 14 13 11 10 7 5 6 7 8 12 16 16 15 16 15 13 10 8 7 6 4 2 1 0 0 0 0 0 0 0 0 0 0 0 0 0
14 14 14 13 13 13 12 11 11 10 8 10 13 13 11 11 11 11 10 9 8 8 6 3 2 2 1 1 0 0 0 0 0 0 0 0 0 0
11 12 12 12 12 11 12 12 12 11 8 7 9 9 7 5 5 8 9 9 9 9 7 5 4 4 4 2 1 0 0 0 0 0 0 0 0 0
12 12 11 11 8 7 8 10 10 10 8 7 7 7 6 4 4 6 8 8 8 9 9 8 6 5 4 3 2 1 1 1 1 0 0 0 0 0
13 13 12 9 5 3 5 7 7 8 8 7 7 8 8 8 7 8 9 8 7 8 9 9 8 5 3 2 2 2 2 2 2 1 1 0 0 0
13 12 11 7 2 0 1 3 3 4 6 7 7 7 8 9 10 10 10 8 6 6 7 8 7 5 2 2 1 1 2 3 3 3 2 1 1 1
11 10 7 4 1 1 1 1 1 3 4 5 6 6 7 8 9 9 7 5 4 4 5 6 6 5 4 3 3 2 2 3 3 3 3 3 2 2
9 8 6 3 2 2 3 3 4 4 5 5 5 6 7 6 7 7 5 4 3 3 4 5 5 5 5 5 5 4 3 3 3 3 3 3 3 3
10 10 10 7 6 5 6 6 6 6 5 5 5 5 5 5 5 6 5 4 4 4 5 6 5 4 4 4 4 5 4 3 3 3 3 3 3 2
9 12 13 11 9 8 8 7 7 6 5 4 4 4 3 3 4 5 6 5 5 6 6 6 4 3 3 3 3 4 4 4 3 3 3 3 2 2
9 12 14 11 10 9 8 7 7 6 5 4 3 3 3 2 2 4 6 6 6 6 6 6 4 3 3 4 4 4 4 4 4 3 2 1 1 1
9 12 12 11 9 8 7 6 6 6 6 5 4 4 4 3 2 4 5 6 6 6 6 6 6 5 4 5 5 4 3 3 3 2 1 0 0 0
8 10 11 10 8 7 6 6 6 6 6 6 6 5 5 4 3 4 4 4 4 4 5 6 7 7 6 6 5 3 2 1 1 1 0 0 0 0
6 7 8 8 7 7 6 6 6 6 6 6 6 6 5 4 3 3 3 3 3 3 4 6 8 8 7 6 5 3 1 0 0 0 0 0 0 0
4 5 6 7 7 6 6 6 6 6 6 6 6 6 4 3 3 3 3 3 3 3 3 5 7 8 7 6 5 3 1 0 0 0 0 0 0 0

GEFSNE_con_prob3kmehi_276.txt.gz
EHI
19 19 19 17 14 11 10 11 10 9 8 9 11 14 19 21 19 17 16 11 5 2 1 0 0 0 0 0 0 0 0 0 0 0 0 0 0 0
21 22 21 19 18 17 16 16 16 16 14 12 11 12 14 16 16 17 18 14 8 4 2 0 0 0 0 0 0 0 0 0 0 0 0 0 0 0
23 24 23 21 22 22 20 20 21 23 20 15 12 12 12 13 16 18 19 17 13 7 2 0 0 0 0 0 0 0 0 0 0 0 0 0 0 0
22 22 22 22 24 25 22 20 22 24 22 18 15 15 15 15 17 20 19 18 14 7 2 0 0 0 0 0 0 0 0 0 0 0 0 0 0 0
21 22 23 24 26 27 24 23 23 23 22 20 18 18 18 17 18 20 19 17 12 7 2 1 0 0 0 0 0 0 0 0 0 0 0 0 0 0
25 27 27 25 25 25 24 25 26 26 24 21 19 19 20 20 20 19 16 14 12 7 4 3 1 1 1 0 0 0 0 0 0 0 0 0 0 0
32 32 28 24 21 20 20 22 24 25 23 20 18 18 19 19 18 16 13 13 11 9 7 5 4 3 3 1 0 0 0 0 0 0 0 0 0 0
37 34 26 19 17 15 14 13 13 16 17 17 16 16 15 15 15 14 13 13 12 11 9 6 5 5 4 2 0 0 0 0 0 0 0 0 0 0
40 38 29 19 15 15 14 10 9 9 10 11 13 13 13 13 13 14 13 12 11 10 9 8 7 6 3 1 0 0 0 0 0 0 0 0 0 0
36 37 33 24 18 16 16 15 15 13 8 6 10 13 13 13 13 13 12 10 9 9 10 11 11 7 3 1 0 0 0 0 0 0 0 0 0 0
30 31 29 24 17 14 15 19 20 17 11 7 7 10 10 9 9 9 10 9 7 8 11 13 12 10 7 3 1 0 0 0 0 0 0 0 0 0
27 25 22 16 11 10 13 18 20 17 12 9 6 6 7 6 6 7 8 8 7 7 9 11 10 9 8 5 2 1 1 1 1 0 0 0 0 0
25 23 19 11 6 6 9 14 15 13 10 8 8 7 7 6 6 8 9 9 9 8 9 10 9 7 7 5 3 1 1 2 2 1 1 1 0 0
24 21 15 7 3 2 4 7 8 7 7 8 9 8 8 7 8 9 11 11 11 10 10 10 8 6 6 5 4 3 2 3 3 3 2 2 1 0
17 13 7 3 1 1 1 2 3 6 8 8 8 7 6 6 7 9 11 12 11 9 9 9 8 6 5 5 4 4 4 3 3 3 3 3 1 1
6 4 2 1 2 3 3 2 5 8 9 9 8 6 5 4 5 7 9 10 9 7 7 8 8 6 5 5 5 5 5 4 3 3 3 3 3 2
2 3 3 3 6 8 8 7 8 9 9 9 8 6 4 3 4 5 6 6 5 5 6 8 9 7 6 5 5 6 5 4 4 3 3 3 3 3
5 7 8 8 9 11 12 12 11 10 10 10 8 7 4 3 3 4 4 5 4 4 6 7 9 8 6 5 5 6 6 6 5 4 3 3 3 3
8 10 11 11 11 11 13 14 12 10 10 10 9 7 5 4 3 3 4 5 6 6 6 7 7 7 6 4 4 5 5 6 6 5 4 3 3 3
8 10 11 11 11 11 12 13 11 9 9 9 8 7 6 5 4 4 4 5 6 6 6 6 6 6 6 5 4 4 4 4 4 5 5 4 3 3
5 6 8 9 9 10 11 12 10 8 7 7 7 6 6 6 6 6 5 5 6 6 6 6 6 5 5 5 4 4 3 3 3 4 4 4 3 3
4 4 4 6 6 9 12 12 11 8 7 6 6 6 6 6 6 6 6 6 6 6 6 6 6 5 4 4 3 3 3 3 3 2 2 3 2 1
6 4 4 4 4 7 12 12 10 8 7 6 6 6 6 6 6 6 6 6 6 6 6 6 6 5 4 3 3 3 3 3 3 2 1 1 1 0

GEFSNE_con_prob3kmehi_282.txt.gz
EHI
4 5 6 6 6 6 6 6 5 2 0 0 0 0 0 0 0 0 1 1 1 0 0 0 0 0 0 0 0 0 0 0 0 0 0 0 0 0
6 6 7 7 7 6 6 5 4 3 2 1 0 0 0 0 0 0 0 1 0 0 0 0 0 0 0 0 0 0 0 0 0 0 0 0 0 0
6 7 7 7 8 7 5 4 3 4 4 3 1 0 0 0 1 1 1 1 1 0 0 0 0 0 0 0 0 0 0 0 0 0 0 0 0 0
7 7 7 8 8 7 5 3 3 4 5 4 2 1 1 1 1 2 2 2 1 0 0 0 0 0 0 0 0 0 0 0 0 0 0 0 0 0
8 7 7 7 7 7 5 4 3 3 4 4 2 2 2 1 2 3 3 2 1 1 0 0 0 0 0 0 0 0 0 0 0 0 0 0 0 0
10 8 7 7 7 7 6 4 3 3 3 3 3 3 3 3 4 4 3 2 2 2 1 0 0 0 0 0 0 0 0 0 0 0 0 0 0 0
11 10 8 7 7 7 6 4 4 5 5 4 4 3 4 4 5 4 2 2 2 2 1 0 0 0 0 0 0 0 0 0 0 0 0 0 0 0
11 10 8 7 6 6 5 4 4 5 6 5 4 3 3 3 3 2 2 2 2 2 2 1 1 0 0 0 0 0 0 0 0 0 0 0 0 0
11 10 10 9 7 6 5 4 3 3 4 4 3 2 1 1 1 0 1 2 3 3 3 3 2 1 0 0 0 0 0 0 0 0 0 0 0 0
9 9 11 11 8 6 5 3 2 1 2 2 2 1 0 0 0 0 0 1 2 3 3 4 3 1 0 0 0 0 0 0 0 0 0 0 0 0
5 6 9 9 5 3 3 3 2 1 0 1 1 1 0 0 0 0 1 2 3 3 3 3 2 1 0 0 0 0 0 0 0 0 0 0 0 0
3 4 5 4 1 1 2 3 2 1 1 1 1 0 0 0 0 0 1 2 3 3 3 3 2 1 0 0 0 0 0 0 0 0 0 0 0 0
4 5 4 2 0 0 1 2 1 1 1 2 2 1 0 0 0 1 1 2 3 3 3 2 1 1 1 0 0 0 0 0 0 0 0 0 0 0
6 6 5 2 0 0 0 0 0 0 1 1 2 2 1 1 1 2 2 3 3 3 3 3 2 2 2 1 0 0 0 0 0 0 0 0 0 0
4 4 3 1 0 0 0 0 0 0 0 1 2 2 2 2 2 2 3 3 3 3 3 3 3 3 3 2 1 0 0 0 0 0 0 0 0 0
1 1 1 0 0 0 0 0 0 0 0 0 1 1 1 1 1 1 2 3 3 3 3 3 3 3 3 3 2 1 0 0 0 0 0 0 0 1
0 0 0 0 0 0 0 0 0 0 0 0 0 0 0 0 0 0 1 3 3 3 3 3 3 3 3 3 2 1 0 1 1 0 0 1 1 2
1 2 1 0 0 0 0 0 0 0 0 0 0 0 0 0 0 0 1 3 3 3 3 3 3 3 3 3 2 2 2 2 2 1 1 2 3 3
3 3 2 1 0 0 0 0 0 0 0 0 0 0 0 0 0 0 2 3 3 3 3 3 3 3 3 3 2 2 3 3 3 3 3 3 3 3
3 3 3 2 1 0 0 0 0 0 0 0 0 0 0 0 0 0 1 2 3 3 3 3 3 3 3 3 2 1 1 2 3 3 3 3 3 3
2 2 2 2 1 0 0 0 0 0 0 1 0 0 0 0 1 0 0 1 1 2 2 3 3 3 3 3 3 1 0 1 1 2 2 3 3 3
1 1 1 1 1 0 0 0 0 0 0 0 0 0 0 0 1 1 1 0 0 1 1 1 2 3 3 3 3 2 1 0 0 1 1 1 2 2
0 0 0 0 0 0 0 0 0 0 0 0 0 0 0 0 1 2 2 1 0 0 0 0 1 3 3 3 3 2 1 0 0 0 0 0 1 1

GEFSNE_con_prob3kmehi_288.txt.gz
EHI
1 2 3 6 7 8 6 5 5 5 3 2 1 0 0 0 0 0 0 0 0 0 0 0 0 0 1 2 3 3 3 2 1 0 0 0 0 0
2 3 6 7 8 9 8 7 7 7 6 4 3 2 2 1 1 1 1 1 0 0 0 0 0 0 0 1 2 2 2 1 1 0 0 0 0 0
4 5 6 8 10 10 9 9 9 9 8 5 4 4 4 3 2 2 2 1 1 0 0 0 0 0 0 0 1 1 0 0 0 0 0 0 0 0
5 5 6 7 9 11 10 10 9 8 8 5 4 4 3 2 1 2 1 1 1 0 0 0 0 0 0 0 0 0 0 0 0 0 0 0 0 0
4 4 5 6 7 9 10 8 6 6 6 5 4 3 2 0 0 0 0 0 0 0 0 0 0 0 0 0 0 0 0 0 0 0 0 0 0 0
4 5 6 7 7 8 8 6 4 3 4 4 4 3 2 1 1 0 1 1 1 0 0 0 0 0 0 0 0 0 0 0 0 0 0 0 0 0
6 6 6 7 7 6 5 4 2 1 2 2 2 2 2 3 2 2 2 3 2 0 0 0 1 0 0 0 0 0 0 0 0 0 0 0 0 0
8 7 6 5 5 4 3 2 0 0 1 1 1 1 2 4 4 3 3 3 1 0 0 0 0 0 0 0 0 0 0 0 0 0 0 0 0 0
8 7 6 5 5 4 3 1 0 0 1 1 0 1 2 3 4 3 2 1 0 0 0 0 0 0 0 0 0 0 0 0 0 0 0 0 0 0
8 8 7 6 5 5 4 3 1 0 0 0 0 0 1 1 1 1 1 0 0 0 1 1 0 0 1 2 1 0 0 0 0 0 0 0 0 0
7 7 7 5 3 4 5 6 3 1 0 0 0 0 0 0 0 0 0 0 0 0 1 2 1 0 1 2 1 0 0 0 0 0 0 0 0 0
7 7 5 3 2 2 4 7 5 3 1 0 0 0 0 0 0 0 0 0 0 0 1 1 1 0 1 2 1 0 0 0 0 0 0 0 0 0
6 6 5 2 1 1 2 4 4 2 1 0 0 0 0 0 0 0 0 0 0 0 0 0 0 0 1 2 2 1 0 0 0 0 0 0 0 0
5 5 5 3 1 0 0 1 1 1 0 0 0 0 0 1 0 0 0 0 0 0 0 0 0 0 1 1 2 2 1 0 0 0 0 0 0 0
4 4 3 2 1 0 0 0 0 0 0 1 1 1 1 1 0 0 0 0 0 0 0 0 0 0 0 0 1 2 1 1 0 0 0 0 0 1
2 2 2 1 1 1 1 1 1 2 2 2 2 3 3 1 0 0 0 0 0 0 0 0 0 0 0 0 0 1 2 2 2 1 1 0 1 2
0 1 2 2 2 2 2 2 3 3 3 3 3 3 3 1 0 0 0 0 0 0 0 0 0 0 0 0 0 1 2 3 3 2 1 1 2 3
0 0 2 3 3 3 3 3 3 3 3 3 3 3 2 1 0 0 0 0 0 0 0 0 0 0 0 0 0 1 2 3 3 2 2 2 2 3
0 1 3 4 4 3 3 3 3 3 3 3 2 2 2 1 0 0 0 0 0 0 0 0 0 0 0 0 0 0 1 2 3 2 3 3 3 2
0 1 3 5 5 4 3 3 3 3 2 1 1 1 1 0 1 1 1 0 0 0 0 0 0 0 0 0 0 0 0 1 2 3 4 3 3 2
1 1 2 3 4 4 3 3 2 2 1 0 0 0 0 0 1 1 1 0 0 0 0 0 1 0 0 0 0 0 0 0 1 2 3 3 3 3
2 2 2 2 3 4 3 1 1 1 0 0 0 0 1 0 0 0 0 0 0 0 0 0 0 0 0 0 0 0 0 0 0 0 1 1 2 2
3 3 3 3 3 3 2 1 0 0 0 0 0 0 1 0 0 0 0 0 0 0 0 0 0 0 0 0 0 0 0 0 0 0 0 0 1 1

GEFSNE_con_prob3kmehi_294.txt.gz
EHI
8 8 8 10 11 10 9 10 10 9 7 7 6 6 6 8 9 7 6 4 1 0 0 0 0 0 0 1 2 2 3 4 5 6 6 3 1 0
11 10 9 10 12 12 12 11 11 11 10 8 6 6 8 9 9 8 7 5 3 1 0 0 0 0 0 0 1 1 2 3 4 5 5 3 1 0
14 12 10 11 14 15 14 13 15 15 13 9 6 7 11 11 10 10 8 7 6 2 0 0 0 0 0 0 0 0 1 1 2 3 3 2 1 0
13 12 12 15 17 17 16 16 17 18 16 12 8 9 13 13 11 10 8 7 5 2 0 0 0 0 0 0 0 0 0 0 1 1 2 1 0 0
11 12 14 18 21 21 20 19 19 18 16 13 11 13 15 14 12 10 9 7 5 2 0 0 0 0 0 0 0 0 0 0 0 0 0 0 0 0
12 13 14 17 20 22 21 21 21 20 17 14 14 16 18 18 16 12 9 8 5 3 2 1 0 0 0 0 0 0 0 0 0 0 0 0 0 0
14 14 15 15 16 17 15 15 18 19 18 15 16 19 20 21 19 13 10 8 7 5 4 3 1 1 1 0 0 0 0 0 0 0 0 0 0 0
15 15 14 13 12 11 9 7 9 12 14 15 17 20 22 20 18 15 12 10 8 7 6 5 3 2 1 0 0 0 0 0 0 0 0 0 0 0
16 16 14 12 11 11 9 5 5 6 9 14 17 20 20 19 18 16 15 12 10 9 7 5 4 2 1 0 0 0 0 0 0 0 0 0 0 0
15 15 14 12 11 11 11 9 9 8 7 9 14 15 15 16 17 18 17 14 12 10 7 5 3 2 1 0 0 0 0 0 0 0 0 0 0 0
16 15 13 11 10 10 11 12 12 11 9 8 8 8 8 8 12 16 18 16 12 11 9 6 4 3 2 2 1 0 0 0 0 0 0 0 0 0
18 16 11 8 6 6 10 13 14 12 11 9 7 6 6 6 8 13 16 16 14 13 11 6 3 2 3 4 3 1 1 0 0 0 0 0 0 0
16 15 11 6 3 2 6 10 12 12 12 11 10 9 10 10 10 13 16 16 16 15 12 6 2 1 2 4 5 4 2 1 0 0 0 0 0 0
12 11 8 4 1 0 2 4 5 6 10 12 11 11 11 12 14 17 19 19 18 16 13 8 4 2 2 3 4 5 4 1 0 0 0 0 0 0
7 6 4 1 0 0 0 1 1 4 9 11 10 10 11 13 16 20 22 21 18 16 13 10 8 5 3 2 3 3 3 1 1 0 0 0 0 0
6 4 3 2 2 2 2 3 4 6 10 11 11 11 12 14 16 18 20 19 16 14 12 11 10 9 6 3 2 2 1 0 0 1 1 1 1 1
8 7 6 6 5 5 5 6 6 8 10 12 13 13 13 14 15 15 16 16 15 13 12 11 10 8 7 4 2 1 1 1 1 1 2 3 2 2
8 11 12 10 8 7 7 7 8 9 11 13 15 15 14 13 13 13 13 14 14 13 13 11 8 6 5 4 3 2 2 2 2 2 2 3 3 3
8 12 14 12 10 8 7 7 8 9 12 14 15 16 14 13 12 11 11 12 12 13 13 12 8 6 5 4 3 1 1 2 4 4 3 3 3 3
7 11 13 12 11 9 8 8 8 10 12 13 14 15 14 12 11 9 8 8 10 11 11 10 7 6 5 5 3 2 1 2 4 5 5 5 4 3
6 8 10 10 10 10 10 10 10 10 11 11 12 13 12 10 9 7 5 5 6 7 7 7 6 5 5 5 4 4 3 2 3 5 5 5 4 3
5 6 6 6 7 10 11 11 10 10 10 10 10 10 9 7 6 4 3 3 3 4 4 5 5 5 4 4 4 4 4 3 2 2 2 2 2 2
4 4 4 4 5 8 10 11 11 11 10 9 9 8 7 6 4 3 2 3 3 3 3 4 5 5 4 4 4 3 3 3 2 1 0 0 1 1

GEFSNE_con_prob3kmehi_300.txt.gz
EHI
26 22 21 20 18 15 13 12 10 10 12 17 20 23 23 17 11 12 14 8 2 0 0 0 0 0 0 0 0 0 0 0 1 2 3 3 3 3
22 19 17 17 15 14 13 12 13 13 14 15 17 22 24 18 12 14 14 9 3 0 0 0 0 0 0 0 0 0 0 0 1 2 3 3 3 3
19 16 15 16 15 13 12 13 16 18 17 14 15 22 25 21 16 16 15 11 7 3 0 0 0 0 0 0 0 0 0 0 0 1 2 3 3 3
18 17 16 17 17 15 14 14 16 18 18 15 15 21 24 22 18 17 16 14 11 5 1 0 0 0 0 0 0 0 0 0 0 0 1 1 2 2
18 17 16 17 17 18 17 15 14 15 16 15 15 18 21 20 18 17 17 17 13 7 2 0 0 0 0 0 0 0 0 0 0 0 0 0 1 1
20 20 18 17 17 17 17 16 15 15 15 13 13 16 18 18 17 16 16 15 13 9 5 2 0 0 0 0 0 0 0 0 0 0 0 0 0 0
23 22 21 18 15 14 13 14 15 16 15 14 14 15 17 17 16 15 13 12 12 11 9 5 2 1 1 0 0 0 0 0 0 0 0 0 0 0
24 24 21 17 14 13 11 9 9 11 13 15 15 16 17 17 16 14 13 12 11 10 10 8 6 4 3 1 0 0 0 0 0 0 0 0 0 0
25 25 22 18 17 17 14 9 6 6 9 12 14 15 17 18 18 15 14 13 12 11 10 9 8 7 6 3 1 0 0 0 0 0 0 0 0 0
23 23 23 20 19 19 18 15 11 8 7 8 10 12 14 16 18 17 16 15 13 12 11 10 9 8 8 5 1 0 0 0 0 0 0 0 0 0
21 21 21 19 16 16 18 20 18 15 11 8 7 9 11 12 13 14 14 14 12 11 11 11 11 9 8 6 2 0 0 0 0 0 0 0 0 0
19 19 18 14 11 10 14 19 19 18 15 11 8 8 10 10 9 10 12 12 11 11 12 13 12 9 8 6 3 0 0 0 0 0 0 0 0 0
15 16 15 9 4 4 9 14 15 15 15 14 11 10 11 13 12 12 12 13 13 12 13 13 12 9 7 6 3 1 1 1 0 0 0 0 0 0
11 12 10 5 1 0 3 7 9 9 12 14 13 12 12 14 15 16 15 14 14 14 14 13 12 9 8 7 4 2 1 1 0 0 0 0 0 0
7 7 5 2 0 0 1 2 3 6 10 13 14 14 14 15 15 15 14 14 14 14 15 15 13 11 10 8 6 4 2 1 0 0 0 0 0 0
4 4 3 2 1 1 1 1 2 5 9 12 14 15 16 16 15 13 13 12 11 11 14 16 16 14 11 9 8 7 5 3 1 0 0 0 0 0
5 7 7 5 4 4 4 4 5 6 8 10 13 14 15 16 14 13 13 11 8 8 10 15 17 15 11 9 9 9 7 5 3 2 0 0 0 0
6 10 11 9 8 8 7 6 7 7 8 10 13 14 14 14 13 11 11 10 7 5 6 10 14 12 9 8 8 8 8 7 6 4 2 1 1 1
6 9 11 11 12 12 12 10 9 10 12 13 14 14 13 13 11 8 7 7 6 5 6 8 10 9 6 6 5 5 6 7 7 6 5 4 4 3
8 9 10 12 15 16 16 15 15 14 14 14 14 13 12 12 10 8 6 5 4 4 5 8 9 7 6 6 6 5 4 4 5 6 6 6 5 4
11 10 11 12 14 16 18 20 19 17 15 14 13 12 11 11 10 8 6 4 3 2 3 5 6 5 6 7 7 5 3 2 3 4 5 6 6 5
11 11 12 12 13 15 19 21 19 16 13 12 11 10 10 10 8 7 5 4 2 1 2 3 4 3 5 6 6 5 4 3 3 3 3 3 4 5
11 11 11 12 12 15 19 21 18 14 11 10 9 8 7 7 6 5 4 4 2 1 1 2 3 4 5 6 6 5 4 5 5 3 1 1 2 2

GEFSNE_con_prob3kmehi_306.txt.gz
EHI
0 0 0 0 0 0 1 2 1 1 1 0 0 0 1 2 2 1 1 1 0 0 0 0 0 0 1 2 2 2 2 2 1 1 2 2 1 0
1 1 0 0 0 0 1 2 3 3 2 1 1 1 0 1 1 1 0 0 0 0 0 0 0 0 0 1 1 1 1 1 0 0 1 1 1 0
4 3 2 2 1 1 2 4 5 5 4 2 2 2 1 1 1 0 0 0 0 0 0 0 0 0 0 0 0 0 0 0 0 0 0 0 0 0
7 6 5 4 4 4 4 5 5 6 5 3 3 3 3 2 1 0 1 2 1 1 0 0 0 0 0 0 0 0 0 0 0 0 0 0 0 0
10 10 9 8 7 6 5 4 4 5 4 3 3 3 3 3 1 1 2 3 3 2 1 1 0 0 0 0 0 0 0 0 0 0 0 0 0 0
12 12 11 11 9 7 5 3 3 3 3 2 3 3 3 3 3 2 2 2 2 2 2 2 1 1 0 0 0 0 0 0 0 0 0 0 0 0
12 12 12 10 8 5 2 1 1 1 1 1 1 2 3 3 3 3 2 1 1 1 3 3 3 2 1 0 0 0 0 0 0 0 0 0 0 0
10 10 11 9 6 2 1 0 0 0 0 0 1 2 3 3 3 3 3 2 1 1 3 4 4 3 2 1 0 0 0 0 0 0 0 0 0 0
9 9 10 9 6 3 2 0 0 0 0 0 1 2 3 3 3 3 3 3 3 3 3 4 4 4 3 2 1 0 0 0 0 0 0 0 0 0
9 8 8 8 6 4 3 2 1 0 1 1 1 3 3 3 2 2 3 3 3 3 3 3 3 4 3 3 2 1 0 0 0 0 0 0 0 0
7 7 6 5 4 3 4 4 3 1 1 1 1 2 2 1 1 1 1 3 3 3 3 3 3 3 3 3 3 2 1 0 0 0 0 0 0 0
6 6 4 3 2 1 3 4 3 2 1 1 0 1 1 0 0 0 1 2 3 3 3 3 3 3 3 3 3 2 1 0 0 0 0 0 0 0
5 5 3 1 1 0 1 3 2 1 1 1 1 1 0 0 0 0 1 2 3 3 3 3 3 3 3 3 2 1 0 0 0 0 0 0 0 0
4 3 2 1 0 0 1 1 1 1 3 4 3 2 1 0 0 0 0 1 2 2 2 2 2 3 3 2 1 0 0 0 0 0 0 0 0 0
1 2 1 0 0 0 0 0 1 2 5 6 5 4 1 0 0 0 0 0 1 1 1 1 1 1 2 2 1 0 0 0 0 0 0 0 0 0
0 0 0 0 0 0 0 0 0 2 4 5 5 4 2 1 0 0 0 0 0 0 0 0 0 0 1 1 1 0 0 0 0 0 0 0 0 0
0 0 0 0 0 0 0 0 0 0 2 3 3 2 1 1 0 0 0 0 0 0 0 0 0 0 0 0 0 0 0 0 0 0 0 1 1 0
0 0 0 0 0 0 0 0 0 0 0 1 1 0 0 0 0 0 0 0 0 0 0 0 0 0 0 0 0 0 0 0 0 0 2 3 3 1
0 0 0 0 0 0 0 0 0 0 0 0 0 0 0 0 0 0 0 0 0 0 0 0 0 0 0 0 0 0 0 0 0 0 2 3 3 2
0 0 0 0 0 0 0 0 0 0 0 0 0 0 0 0 0 0 0 0 0 0 0 0 0 0 0 0 0 0 0 0 0 0 1 1 1 1
1 0 0 0 0 0 0 0 0 0 0 0 0 0 0 1 0 0 0 0 0 0 0 0 0 0 0 0 0 0 0 0 0 0 0 0 0 0
1 0 0 0 0 0 0 0 0 0 0 0 0 0 0 0 0 0 0 0 0 0 0 0 0 0 0 0 0 0 0 0 0 0 0 0 0 0
1 0 0 0 0 0 0 1 1 1 0 0 1 1 1 0 0 0 0 0 0 0 0 0 0 0 0 0 0 0 0 0 0 0 0 0 0 0

GEFSNE_con_prob3kmehi_312.txt.gz
EHI
4 3 2 2 1 1 3 5 5 4 2 1 1 0 0 0 1 3 4 2 1 0 0 0 0 0 0 0 0 1 2 2 2 1 2 3 3 3
5 5 4 4 3 3 5 6 6 5 4 3 2 1 1 0 1 3 3 1 0 0 0 0 0 0 0 0 0 0 1 1 1 0 1 2 2 2
5 5 6 5 6 6 7 8 8 7 7 5 4 3 2 1 1 2 1 0 0 0 0 0 0 0 0 0 0 0 0 0 0 0 0 1 1 1
5 6 7 7 8 9 9 9 9 9 9 7 6 4 2 1 1 1 0 0 0 0 0 0 0 0 0 0 0 0 0 0 0 0 0 0 0 0
7 8 9 10 10 9 9 9 10 10 10 8 6 3 1 0 0 0 0 0 0 0 0 0 0 0 0 0 0 0 0 0 0 0 0 0 0 0
9 11 13 12 10 9 8 9 9 9 8 6 4 2 1 0 0 0 0 0 0 0 0 0 0 0 0 0 0 0 0 0 0 0 0 0 0 0
11 12 13 11 9 7 6 7 7 6 5 3 1 1 0 0 0 0 0 0 0 0 0 0 0 0 0 0 0 0 0 0 0 0 0 0 0 0
11 10 9 8 7 5 3 3 4 3 2 1 0 0 0 0 0 0 0 0 1 1 1 0 1 1 1 0 0 0 0 0 0 0 0 0 0 0
9 8 7 6 7 6 3 2 2 1 1 1 1 1 1 1 0 0 0 0 1 2 1 1 1 2 1 0 0 0 0 0 0 0 0 0 0 0
9 8 8 7 7 6 5 4 3 2 1 0 1 1 2 1 0 0 0 0 0 1 1 0 1 1 1 0 0 0 0 0 0 0 0 0 0 0
9 9 8 7 5 3 4 5 5 4 2 1 0 1 1 1 0 0 1 1 1 0 0 0 0 0 0 0 0 0 0 0 0 0 0 0 0 0
10 9 7 4 2 1 1 3 3 3 3 2 1 1 0 0 0 1 2 2 2 1 0 0 0 1 1 0 0 0 0 0 0 0 0 0 0 0
9 9 6 2 0 0 1 1 1 1 2 3 2 2 1 1 0 1 2 3 3 2 1 0 1 2 2 1 0 0 0 0 0 0 0 0 0 0
7 7 6 2 0 0 0 0 0 0 1 1 2 3 3 3 2 1 1 1 2 2 1 1 1 2 2 1 0 0 0 0 0 0 0 0 0 0
5 5 3 1 0 0 0 0 0 0 0 0 1 3 4 5 4 3 1 0 1 1 1 0 1 1 1 0 0 0 0 0 0 0 0 0 0 0
2 1 1 0 0 0 0 0 0 0 0 0 1 2 4 5 4 3 1 0 0 0 0 0 0 0 0 0 0 0 0 0 0 0 0 0 0 0
0 0 1 1 1 0 0 0 0 0 0 0 0 1 1 2 1 1 1 0 0 0 0 0 0 0 0 0 0 0 0 0 0 0 0 0 0 0
0 0 1 2 1 0 0 0 0 0 0 0 0 0 0 0 0 0 0 0 0 0 0 0 0 0 0 0 0 0 0 0 0 0 0 0 0 0
0 0 1 1 1 1 0 0 0 0 0 0 0 0 0 0 0 0 0 0 0 0 0 0 0 0 0 0 0 0 0 0 0 0 0 0 0 0
1 0 1 1 2 2 2 1 1 1 0 0 0 0 0 0 0 0 0 0 0 0 0 0 0 0 0 0 0 0 0 0 0 0 0 0 0 0
2 2 2 3 3 4 4 4 2 1 0 0 0 0 0 0 0 0 0 0 0 0 0 0 0 0 0 0 0 0 0 0 0 0 0 0 0 0
3 3 3 4 4 5 5 5 3 1 0 0 0 0 0 0 0 0 0 0 0 0 0 0 0 0 0 0 0 0 0 0 0 0 0 0 0 0
3 3 4 4 5 5 5 4 3 2 1 0 0 0 0 0 0 0 0 0 0 0 0 0 0 0 0 0 0 0 0 0 0 0 0 0 0 0

GEFSNE_con_prob3kmehi_318.txt.gz
EHI
14 14 14 13 15 16 17 17 13 9 8 8 8 7 7 7 8 9 8 5 2 0 0 0 0 0 0 0 0 0 0 0 0 1 1 1 1 0
19 19 19 17 16 16 18 19 17 13 10 10 10 10 10 9 9 9 8 5 2 0 0 0 0 0 0 0 0 0 0 0 0 0 1 1 1 1
22 23 23 22 20 18 19 21 21 19 15 12 11 12 13 12 11 10 9 7 4 2 1 0 0 0 0 0 0 0 0 0 0 0 0 1 1 0
22 24 24 25 26 24 23 22 22 21 19 16 13 14 15 14 13 11 8 6 4 2 2 1 0 0 0 0 0 0 0 0 0 0 0 0 0 0
22 24 25 27 30 30 26 23 22 21 21 19 16 15 15 14 13 11 7 5 3 2 2 1 0 0 0 0 0 0 0 0 0 0 0 0 0 0
23 25 26 26 28 28 25 24 23 22 21 20 17 16 15 14 14 11 8 6 5 3 2 0 0 0 0 0 0 0 0 0 0 0 0 0 0 0
23 25 26 25 23 19 16 16 18 19 19 18 18 18 17 15 13 11 8 7 6 5 3 1 0 0 0 0 0 0 0 0 0 0 0 0 0 0
24 26 26 24 18 12 7 6 8 11 14 17 19 19 18 15 13 11 9 8 7 7 5 2 1 1 1 0 0 0 0 0 0 0 0 0 0 0
24 26 26 24 19 15 10 6 6 6 9 13 17 17 17 16 14 13 12 11 10 10 8 5 2 2 1 0 0 0 0 0 0 0 0 0 0 0
21 23 24 23 20 17 16 14 13 10 7 8 10 12 13 13 15 15 15 13 11 10 9 7 4 2 1 1 0 0 0 0 0 0 0 0 0 0
17 18 18 17 14 12 13 16 16 14 9 5 4 5 5 6 9 13 15 13 11 9 10 9 5 3 2 2 2 1 0 0 0 0 0 0 0 0
14 14 11 8 6 5 7 10 12 11 9 6 5 5 4 4 6 11 14 15 12 10 11 11 7 4 3 4 4 3 1 0 0 0 0 0 0 0
12 10 6 3 1 2 3 5 6 6 7 8 9 8 8 9 10 12 15 17 15 13 13 12 9 6 5 5 6 6 4 3 2 1 1 0 0 0
9 7 3 1 0 0 0 1 2 3 5 8 8 8 9 11 13 15 17 18 18 16 15 14 13 11 9 8 8 8 8 7 5 3 2 2 2 2
5 3 1 0 0 0 0 0 1 3 5 6 6 6 8 11 13 15 17 18 17 16 16 17 17 15 14 12 10 10 10 9 7 5 5 5 5 4
3 3 2 1 2 2 2 2 2 4 6 6 5 6 9 11 13 14 15 15 15 14 16 17 18 18 17 15 12 10 10 9 7 6 6 6 5 5
5 5 5 5 5 5 5 5 6 6 6 6 7 8 9 11 12 13 14 14 13 13 14 15 16 17 16 14 11 10 9 9 8 7 7 6 4 3
5 6 8 8 7 7 7 8 9 8 8 8 8 9 9 9 10 12 13 13 13 12 12 13 14 13 12 10 9 8 8 9 8 7 5 4 3 2
4 7 9 9 8 7 7 8 9 9 8 8 8 8 7 8 10 11 12 12 12 13 13 14 13 12 9 8 7 5 6 7 6 4 3 2 1 1
3 7 10 10 8 7 7 8 8 8 7 7 7 7 7 8 9 11 11 12 12 14 15 15 14 11 9 8 6 4 3 3 3 2 1 1 0 0
4 6 9 9 7 6 7 8 7 7 6 6 7 7 8 9 10 10 11 11 11 12 14 15 14 11 9 7 5 3 2 1 1 1 0 0 0 0
5 5 6 6 5 5 6 6 6 6 7 7 8 9 9 10 10 10 10 10 10 10 12 13 14 11 8 6 4 2 1 0 0 0 0 0 0 0
6 5 5 4 4 4 5 5 5 6 8 9 9 9 10 10 10 10 10 10 10 10 10 11 12 11 8 5 3 1 0 0 0 0 0 0 0 0